Terug naar catalogus

LEMUR-2 EMARCHIA

ActiefWetenschapSSO
NORAD 68492·PAYLOAD·🇩🇪 Germany

Gelanceerd Mar 30, 2026 vanaf Vandenberg Space Force Base

Loading…

Volgende Passages (komende 24 uur)

TLE

VersSource: Space-Track

Epoch: Sep 14, 2026, 14:21 UTC

1 68492U 26067CE  26257.59852883  .00003604  00000-0  35688-3 0  9996
2 68492  97.7651 214.4271 0004872 105.4110 254.7647 14.92458399 25051

Volg LEMUR-2 EMARCHIA in realtime met AllMySat

Download on the App Store